[[{"header":{"parameterUnit":"m.s-1","parameterCategory":2,"la1":30.2991,"la2":30.254,"lo1":-89.0895,"lo2":-89.0444,"dy":0.0017,"dx":0.0017,"nx":28,"ny":28,"refTime":"2023-09-15T21:00:00:Z","depth":"0","parameterNumber":2,"parameterNumberName":"U-component_of_CURRENTS"},"data":[0,0,0,0,0,0,0,0,0,0,0,0,0,0,0,0,0,0,0,0,0,0,0,0,0,0,0,0,0,0,0,0,0,0,0,0,0,0,0,0,0,0,0,0,0,0,0,0,0,0,0,0,0,0,0,0,0,0,0.2316,0.2317,0,0.2346,0.2347,0.2347,0.2354,0.2354,0.2354,0.2354,0.2351,0.2351,0.2351,0,0,0,0,0,0,0,0,0,0,0,0,0,0.2258,0.2259,0.2316,0.2317,0.2317,0.2346,0.2347,0.2347,0.2354,0.2354,0.2354,0.2354,0.2351,0.2351,0.2351,0,0,0,0,0,0,0,0,0,0,0,0,0,0.2283,0.2259,0.2316,0.2326,0.2328,0.2346,0.2347,0.2347,0.2354,0.2354,0.2354,0.2354,0.2351,0.2351,0.2351,0.2348,0,0,0.235,0.235,0,0,0,0,0,0,0,0,0.2282,0.2285,0.2324,0.2326,0.2327,0.2349,0.2325,0.2347,0.2354,0.2341,0.2354,0.2354,0.2349,0.2349,0.2351,0.2348,0.2348,0.235,0.235,0.235,0.235,0,0,0,0,0,0,0,0.228,0.2283,0.2325,0.2325,0.2327,0.2328,0.2331,0.2329,0.2342,0.2342,0.2344,0.2351,0.2349,0.2351,0.2351,0.2348,0.235,0.235,0.235,0.235,0.2354,0.2354,0,0,0,0,0,0,0.2282,0.2282,0.2324,0.2326,0.2307,0.2329,0.2333,0.234,0.2342,0.2344,0.2351,0.2352,0.2352,0.2351,0.2351,0.2363,0.235,0.235,0.235,0.2354,0.2354,0.2354,0,0,0,0,0,0,0.228,0.2285,0.2323,0.2307,0.2312,0.233,0.2338,0.234,0.2345,0.235,0.235,0.2354,0.2352,0.2351,0.2354,0.2363,0.235,0.235,0.2353,0.2354,0.2354,0.2378,0,0,0,0,0,0,0.2279,0.2285,0.2287,0.2307,0.2313,0.2336,0.2338,0.2341,0.2351,0.2351,0.2352,0.2352,0.2352,0.2354,0.2354,0.2362,0.235,0.2353,0.2354,0.2354,0.2377,0.2379,0.2381,0,0,0,0,0,0.2276,0.2279,0.2287,0.2292,0.2317,0.2336,0.2339,0.235,0.2351,0.2354,0.2356,0.2352,0.2357,0.2354,0.2354,0.2362,0.2353,0.2353,0.2354,0.2376,0.2378,0.2381,0,0,0,0,0,0,0.2254,0.2281,0.229,0.23,0.2319,0.2339,0.2343,0.2351,0.2355,0.2354,0.2355,0.2355,0.236,0.2356,0.2354,0.2364,0.2354,0.2354,0.2371,0.2373,0.2375,0.2372,0.2349,0,0,0,0,0,0.2251,0.2261,0.2287,0.2296,0.2306,0.2324,0.2332,0.2342,0.2352,0.2354,0.2355,0.2357,0.2361,0.2363,0.2363,0.2368,0.2384,0.2373,0.2375,0.2376,0.2373,0.2403,0.2408,0.2356,0.2356,0.2356,0,0,0.2245,0.2262,0.2266,0.2292,0.2306,0.2323,0.2328,0.2344,0.2355,0.2352,0.236,0.2362,0.2363,0.2372,0.2374,0.237,0.2404,0.2377,0.2379,0.2374,0.2405,0.241,0.2414,0.2356,0.2356,0.2356,0,0,0.224,0.2253,0.2261,0.2279,0.2306,0.232,0.2325,0.2346,0.2352,0.2363,0.2365,0.2372,0.2375,0.2382,0.2385,0.2396,0.2412,0.2397,0.2407,0.2437,0.2442,0.2446,0.2496,0.2504,0.24,0.24,0.24,0,0.2231,0.225,0.2266,0.2282,0.2299,0.2319,0.2335,0.2346,0.2363,0.2371,0.2367,0.2382,0.238,0.2399,0.2402,0.2401,0.2428,0.24,0.2441,0.2445,0.2449,0.2499,0.2508,0.2401,0.2401,0.2401,0.2401,0,0.2237,0.2255,0.2262,0.2292,0.2307,0.2325,0.2348,0.236,0.2369,0.2381,0.2397,0.2398,0.2413,0.2411,0.2409,0.2437,0.2453,0.244,0.2437,0.2456,0.2507,0.2516,0.2403,0.2402,0.2402,0.2402,0,0,0.2218,0.2258,0.2261,0.2279,0.2316,0.2329,0.2351,0.2379,0.2394,0.2405,0.2427,0.243,0.2437,0.2441,0.2444,0.246,0.2516,0.2462,0.2463,0.2517,0.2606,0.2655,0.2669,0.2516,0.2517,0.2518,0.2639,0,0.2223,0.225,0.227,0.2298,0.2319,0.2346,0.2364,0.2387,0.2408,0.2431,0.2441,0.2457,0.2449,0.2459,0.2478,0.25,0.2537,0.2485,0.2574,0.2577,0.2622,0.268,0.2529,0.2627,0.2648,0.265,0.2651,0,0.2227,0.2249,0.2271,0.2311,0.232,0.2333,0.2371,0.2393,0.2431,0.2447,0.2475,0.2487,0.252,0.2503,0.2573,0.2544,0.2581,0.2596,0.2601,0.2641,0.2642,0.2606,0.2643,0.2583,0.2665,0.2664,0.2663,0,0.221,0.2252,0.2267,0.2282,0.2324,0.2334,0.2356,0.2393,0.2418,0.2461,0.2488,0.2526,0.2557,0.2594,0.2648,0.2613,0.2732,0.269,0.2775,0.278,0.2665,0.2658,0.2652,0.2749,0.2749,0.2748,0.2748,0,0.221,0.2224,0.2259,0.2268,0.2289,0.2321,0.2348,0.2376,0.2424,0.2466,0.2497,0.2549,0.258,0.2654,0.2681,0.2783,0.2775,0.2797,0.2818,0.2673,0.2665,0.2618,0.2586,0.2753,0.2752,0.2751,0.275,0,0.218,0.2208,0.223,0.2268,0.2281,0.2293,0.2345,0.2365,0.2418,0.248,0.2498,0.2583,0.2685,0.2741,0.282,0.2845,0.2842,0.2953,0.2798,0.28,0.2803,0.2778,0.2714,0.264,0.3052,0.3053,0.3055,0,0.2153,0.2168,0.2216,0.2224,0.2237,0.2268,0.2288,0.2351,0.238,0.2512,0.2538,0.2663,0.2749,0.2906,0.2955,0.3043,0.2929,0.2963,0.2862,0.2809,0.2795,0.2671,0.2603,0.2722,0.2721,0.272,0.272,0,0.2103,0.2129,0.2146,0.2174,0.2193,0.2224,0.2262,0.2288,0.2379,0.2428,0.252,0.2605,0.2806,0.2829,0.2982,0.3014,0.2808,0.2951,0.2903,0.256,0.241,0.2346,0.2663,0.2711,0.2712,0.2712,0.2713,0.2713,0.2042,0.2053,0.2079,0.2094,0.2129,0.2145,0.2119,0.2182,0.2215,0.2254,0.2423,0.2485,0.263,0.2819,0.2854,0.2838,0.2827,0.2732,0.2718,0.2608,0.2487,0.2825,0.2896,0.2898,0.29,0.2901,0.2902,0,0.192,0.1957,0.1988,0.1989,0.1977,0.2034,0.206,0.2011,0.1994,0.2128,0.2174,0.2294,0.2375,0.2506,0.2616,0.2578,0.2426,0.2522,0.2256,0.2211,0.2514,0.245,0.2415,0.2415,0.2415,0.2415,0.2415,0.2415,0.1854,0.1836,0.1867,0.1811,0.1819,0.1745,0.1724,0.1707,0.176,0.1797,0.1862,0.1972,0.2232,0.2363,0.2382,0.2339,0.2168,0.2086,0.2127,0.2293,0.2308,0.2322,0.2253,0.2178,0.2178,0.1667,0.1664,0.1661]},{"header":{"parameterUnit":"m.s-1","parameterCategory":2,"la1":30.2991,"la2":30.254,"lo1":-89.0895,"lo2":-89.0444,"dy":0.0017,"dx":0.0017,"nx":28,"ny":28,"refTime":"2023-09-15T21:00:00:Z","depth":"0","parameterNumber":3,"parameterNumberName":"V-component_of_CURRENTS"},"data":[0,0,0,0,0,0,0,0,0,0,0,0,0,0,0,0,0,0,0,0,0,0,0,0,0,0,0,0,0,0,0,0,0,0,0,0,0,0,0,0,0,0,0,0,0,0,0,0,0,0,0,0,0,0,0,0,0,0,-0.0473,-0.0474,0,-0.0566,-0.0567,-0.0568,-0.0626,-0.0626,-0.0627,-0.0627,-0.0752,-0.0755,-0.0758,0,0,0,0,0,0,0,0,0,0,0,0,0,-0.0344,-0.0346,-0.0473,-0.0474,-0.0475,-0.0566,-0.0567,-0.0568,-0.0626,-0.0626,-0.0627,-0.0627,-0.0751,-0.0755,-0.0758,0,0,0,0,0,0,0,0,0,0,0,0,0,-0.0415,-0.0346,-0.0472,-0.0515,-0.0519,-0.0566,-0.0567,-0.0569,-0.0626,-0.0626,-0.0627,-0.0627,-0.075,-0.0754,-0.0759,-0.0778,0,0,-0.0773,-0.0775,0,0,0,0,0,0,0,0,-0.041,-0.0419,-0.0507,-0.0512,-0.0517,-0.0585,-0.0568,-0.064,-0.0626,-0.0586,-0.0627,-0.0627,-0.0699,-0.0708,-0.0724,-0.0784,-0.079,-0.0773,-0.0776,-0.0778,-0.0779,0,0,0,0,0,0,0,-0.0405,-0.0416,-0.051,-0.0508,-0.0514,-0.0528,-0.0539,-0.0581,-0.0639,-0.0589,-0.0593,-0.0603,-0.0702,-0.0719,-0.0727,-0.0791,-0.0773,-0.0777,-0.078,-0.0782,-0.0877,-0.0877,0,0,0,0,0,0,-0.0394,-0.0411,-0.0507,-0.0513,-0.0464,-0.053,-0.0542,-0.0563,-0.0638,-0.065,-0.0603,-0.0606,-0.0711,-0.0722,-0.0732,-0.076,-0.0778,-0.0782,-0.0785,-0.0878,-0.0877,-0.0877,0,0,0,0,0,0,-0.0391,-0.0402,-0.0503,-0.0463,-0.0477,-0.0532,-0.0555,-0.0564,-0.0581,-0.0648,-0.0661,-0.061,-0.0712,-0.0726,-0.0765,-0.0765,-0.0784,-0.0789,-0.0878,-0.0877,-0.0877,-0.0816,0,0,0,0,0,0,-0.0387,-0.04,-0.0404,-0.0463,-0.0479,-0.0526,-0.0554,-0.0566,-0.0587,-0.0591,-0.0658,-0.0671,-0.0713,-0.0758,-0.077,-0.0772,-0.0792,-0.0878,-0.0878,-0.0877,-0.0818,-0.0814,-0.081,0,0,0,0,0,-0.0382,-0.0383,-0.0404,-0.0416,-0.0485,-0.0526,-0.0535,-0.0575,-0.0586,-0.0592,-0.0635,-0.0668,-0.0764,-0.0762,-0.0775,-0.0779,-0.0878,-0.0878,-0.0877,-0.082,-0.0814,-0.081,0,0,0,0,0,0,-0.0324,-0.0391,-0.0415,-0.0436,-0.0476,-0.0535,-0.054,-0.0568,-0.0606,-0.0609,-0.0668,-0.0684,-0.0718,-0.0754,-0.075,-0.0804,-0.0826,-0.0828,-0.0778,-0.0773,-0.0768,-0.0745,-0.0796,0,0,0,0,0,-0.0315,-0.0335,-0.0399,-0.0412,-0.0431,-0.0484,-0.0502,-0.0532,-0.0575,-0.0592,-0.0639,-0.0686,-0.0727,-0.0753,-0.0794,-0.0825,-0.0835,-0.0836,-0.0831,-0.0827,-0.0817,-0.0837,-0.0833,-0.0875,-0.0875,-0.0875,0,0,-0.0292,-0.0332,-0.0342,-0.04,-0.0434,-0.0459,-0.0496,-0.0521,-0.0539,-0.06,-0.0631,-0.0673,-0.073,-0.0764,-0.0783,-0.0796,-0.0816,-0.0827,-0.0823,-0.0815,-0.0836,-0.0832,-0.0828,-0.0875,-0.0875,-0.0875,0,0,-0.0258,-0.0297,-0.0304,-0.034,-0.0391,-0.0428,-0.0432,-0.0492,-0.0515,-0.0552,-0.0596,-0.0631,-0.07,-0.0737,-0.0765,-0.0761,-0.079,-0.0778,-0.0744,-0.0763,-0.0759,-0.0756,-0.0738,-0.0734,-0.0779,-0.0779,-0.0779,0,-0.022,-0.0255,-0.0308,-0.0329,-0.0349,-0.0411,-0.0419,-0.0456,-0.0518,-0.0529,-0.0552,-0.0635,-0.0684,-0.0721,-0.0722,-0.075,-0.0754,-0.0758,-0.0755,-0.0753,-0.0751,-0.0734,-0.073,-0.0776,-0.0777,-0.0777,-0.0777,0,-0.0207,-0.0231,-0.0235,-0.0287,-0.0312,-0.0329,-0.0388,-0.041,-0.0443,-0.048,-0.0518,-0.0583,-0.0628,-0.0654,-0.0691,-0.0704,-0.0706,-0.0743,-0.0764,-0.0743,-0.0726,-0.0723,-0.0772,-0.0773,-0.0774,-0.0775,0,0,-0.0117,-0.0208,-0.0207,-0.0224,-0.0292,-0.0307,-0.0332,-0.0369,-0.0367,-0.0436,-0.0435,-0.0519,-0.0547,-0.058,-0.0632,-0.0657,-0.0643,-0.069,-0.0693,-0.0663,-0.0655,-0.0607,-0.0599,-0.0683,-0.0682,-0.0682,-0.0639,0,-0.0083,-0.0116,-0.0168,-0.0179,-0.0196,-0.0254,-0.0266,-0.0305,-0.0338,-0.0353,-0.0424,-0.045,-0.0523,-0.0535,-0.0573,-0.0624,-0.0637,-0.0649,-0.0688,-0.0688,-0.0642,-0.0595,-0.0561,-0.0515,-0.0636,-0.0636,-0.0635,0,-0.0046,-0.0075,-0.009,-0.0129,-0.0137,-0.0149,-0.0164,-0.0187,-0.0229,-0.0252,-0.0297,-0.0347,-0.0394,-0.0456,-0.053,-0.0534,-0.0583,-0.0627,-0.0627,-0.0602,-0.0636,-0.0563,-0.0506,-0.064,-0.0632,-0.0632,-0.0632,0,0.004,-0.0009,-0.0019,-0.0038,-0.0095,-0.0092,-0.0114,-0.0148,-0.0147,-0.0184,-0.0171,-0.0252,-0.0265,-0.0357,-0.0444,-0.0487,-0.0504,-0.0577,-0.0577,-0.0573,-0.0559,-0.0554,-0.0629,-0.0618,-0.0618,-0.0618,-0.0618,0,0.0093,0.0099,0.002,0.0017,0.0037,-0.0024,0.0005,-0.0026,-0.0045,-0.0008,-0.0111,-0.0086,-0.0242,-0.0275,-0.0386,-0.0443,-0.0456,-0.0545,-0.0557,-0.0534,-0.0527,-0.0658,-0.0728,-0.0617,-0.0617,-0.0617,-0.0618,0,0.019,0.0131,0.0129,0.0077,0.0073,0.0088,0.0077,0.0104,0.0069,0.0121,0.0118,0.0053,0.0019,-0.0112,-0.0225,-0.0334,-0.0465,-0.0438,-0.0375,-0.0381,-0.0527,-0.0593,-0.0631,-0.068,-0.0438,-0.0437,-0.0435,0,0.0236,0.0234,0.0189,0.0198,0.0178,0.0188,0.0211,0.017,0.0206,0.0224,0.0271,0.0246,0.0266,0.0123,-0.0063,-0.021,-0.0368,-0.0298,-0.039,-0.0502,-0.0587,-0.064,-0.0684,-0.034,-0.0338,-0.0337,-0.0336,0,0.0333,0.0306,0.0292,0.0303,0.0321,0.0346,0.0373,0.0419,0.0412,0.0462,0.0541,0.0558,0.0439,0.0312,0.01,-0.0033,-0.0366,-0.027,-0.042,-0.0527,-0.0556,-0.0619,-0.0384,-0.0322,-0.0323,-0.0324,-0.0325,-0.0325,0.0415,0.0422,0.0394,0.0414,0.0443,0.0505,0.055,0.0602,0.0685,0.0763,0.0766,0.0816,0.0601,0.032,0.0132,-0.0213,-0.0246,-0.0362,-0.0431,-0.0474,-0.0529,-0.0231,-0.0169,-0.017,-0.017,-0.017,-0.0171,0,0.0504,0.0495,0.0513,0.0534,0.059,0.0577,0.0664,0.0719,0.0849,0.0932,0.0999,0.0952,0.0677,0.0357,-0.0078,-0.0342,-0.0472,-0.0508,-0.0616,-0.0657,-0.0421,-0.0428,-0.0378,-0.0378,-0.0377,-0.0377,-0.0377,-0.0377,0.0547,0.0574,0.0567,0.0662,0.0688,0.0769,0.0823,0.0914,0.0987,0.1112,0.1159,0.1166,0.0966,0.0153,-0.0431,-0.0582,-0.079,-0.0795,-0.0922,-0.0816,-0.081,-0.0804,-0.0831,-0.0866,-0.0867,-0.1137,-0.1139,-0.1142]}],[{"header":{"parameterUnit":"m.s-1","parameterCategory":2,"la1":30.2991,"la2":30.254,"lo1":-89.0895,"lo2":-89.0444,"dy":0.0017,"dx":0.0017,"nx":28,"ny":28,"refTime":"2023-09-15T21:00:00:Z","depth":"2","parameterNumber":2,"parameterNumberName":"U-component_of_CURRENTS"},"data":[0,0,0,0,0,0,0,0,0,0,0,0,0,0,0,0,0,0,0,0,0,0,0,0,0,0,0,0,0,0,0,0,0,0,0,0,0,0,0,0,0,0,0,0,0,0,0,0,0,0,0,0,0,0,0,0,0,0,0.174,0.174,0,0.1724,0.1723,0.1723,0.1699,0.1699,0.1699,0.1699,0.1688,0.1688,0.1688,0,0,0,0,0,0,0,0,0,0,0,0,0,0.1776,0.1775,0.174,0.174,0.174,0.1724,0.1723,0.1723,0.1699,0.1699,0.1699,0.1699,0.1688,0.1688,0.1688,0,0,0,0,0,0,0,0,0,0,0,0,0,0.1758,0.1775,0.174,0.1728,0.1726,0.1724,0.1723,0.1723,0.17,0.1699,0.1699,0.1698,0.1688,0.1688,0.1688,0.1695,0,0,0.1688,0.1688,0,0,0,0,0,0,0,0,0.1759,0.1757,0.173,0.1729,0.1727,0.1715,0.1732,0.1714,0.17,0.1708,0.1699,0.1698,0.1699,0.1698,0.1693,0.1694,0.1694,0.1688,0.1688,0.1688,0.1688,0,0,0,0,0,0,0,0.176,0.1757,0.1732,0.173,0.1728,0.1731,0.1728,0.1729,0.1704,0.1707,0.1706,0.1707,0.1698,0.1693,0.1693,0.1694,0.1688,0.1688,0.1688,0.1688,0.1758,0.1759,0,0,0,0,0,0,0.1765,0.1758,0.1732,0.1731,0.1745,0.1731,0.1727,0.1718,0.1704,0.1702,0.1707,0.1706,0.1694,0.1693,0.1692,0.1743,0.1688,0.1688,0.1688,0.1756,0.1758,0.176,0,0,0,0,0,0,0.1766,0.1762,0.1733,0.1747,0.1743,0.1731,0.172,0.1718,0.172,0.1705,0.1702,0.1714,0.1693,0.1692,0.171,0.1741,0.1688,0.1687,0.1753,0.1756,0.1759,0.1816,0,0,0,0,0,0,0.1766,0.1762,0.1762,0.1747,0.1743,0.1741,0.1721,0.1718,0.1722,0.172,0.1709,0.1707,0.1693,0.1711,0.171,0.174,0.1687,0.1751,0.1755,0.1758,0.1812,0.1821,0.1828,0,0,0,0,0,0.1768,0.1765,0.1761,0.1759,0.174,0.1742,0.1741,0.173,0.1723,0.1729,0.1728,0.1708,0.1733,0.1712,0.1711,0.1741,0.1749,0.1754,0.1758,0.1808,0.1819,0.1828,0,0,0,0,0,0,0.1783,0.1763,0.1758,0.175,0.1753,0.1739,0.1745,0.1739,0.1742,0.1743,0.1726,0.1725,0.1755,0.1744,0.172,0.1775,0.1741,0.1745,0.178,0.179,0.1798,0.1798,0.1687,0,0,0,0,0,0.1786,0.1777,0.1768,0.1765,0.1769,0.1761,0.1762,0.1756,0.1756,0.1756,0.1749,0.1754,0.1772,0.1776,0.1784,0.1807,0.1816,0.183,0.1838,0.1845,0.1847,0.189,0.1902,0.1774,0.1774,0.1774,0,0,0.1794,0.1781,0.1777,0.1769,0.1769,0.178,0.176,0.1768,0.1782,0.1756,0.1775,0.1781,0.1786,0.1817,0.183,0.1809,0.1891,0.185,0.1856,0.1854,0.1896,0.1908,0.1919,0.1777,0.1777,0.1776,0,0,0.1807,0.1794,0.1795,0.1798,0.1802,0.18,0.1807,0.1804,0.1809,0.1829,0.1825,0.1852,0.1859,0.1877,0.1887,0.1947,0.1936,0.195,0.1985,0.2028,0.2038,0.2047,0.2093,0.2106,0.195,0.195,0.195,0,0.1826,0.1812,0.1801,0.1808,0.1814,0.1813,0.1828,0.1838,0.1842,0.1857,0.1844,0.1889,0.1892,0.1945,0.1966,0.1966,0.1984,0.1944,0.2038,0.2047,0.2055,0.21,0.2113,0.1954,0.1953,0.1953,0.1953,0,0.1833,0.1834,0.184,0.1844,0.1854,0.1866,0.1879,0.1897,0.1903,0.1912,0.196,0.197,0.1994,0.201,0.2004,0.2073,0.2066,0.2045,0.2009,0.2071,0.2115,0.2128,0.1958,0.1957,0.1956,0.1955,0,0,0.1855,0.1846,0.1854,0.1858,0.1871,0.188,0.1917,0.1948,0.1976,0.1995,0.2033,0.2077,0.2077,0.209,0.2094,0.2132,0.2217,0.2113,0.2113,0.2152,0.2317,0.2226,0.2231,0.2207,0.2209,0.2211,0.2329,0,0.1872,0.1882,0.1877,0.1904,0.1913,0.1926,0.1959,0.199,0.2015,0.2053,0.2088,0.2125,0.211,0.2127,0.2165,0.22,0.225,0.2187,0.2255,0.2258,0.2163,0.2242,0.2057,0.2138,0.2342,0.2344,0.2345,0,0.1891,0.1887,0.1911,0.1924,0.1933,0.1956,0.2004,0.2031,0.2091,0.2112,0.2155,0.217,0.2237,0.221,0.2307,0.2264,0.23,0.2326,0.233,0.2229,0.219,0.2106,0.2153,0.2366,0.2365,0.2363,0.2362,0,0.191,0.192,0.1937,0.1942,0.1959,0.1984,0.2002,0.2054,0.2091,0.2153,0.2192,0.2246,0.2297,0.2336,0.2393,0.2351,0.2503,0.2449,0.241,0.2405,0.2251,0.2227,0.2533,0.2533,0.2533,0.2532,0.2532,0,0.1931,0.1945,0.1947,0.1956,0.1988,0.1995,0.2049,0.2077,0.2133,0.2187,0.2223,0.2292,0.2332,0.2414,0.2433,0.2472,0.2542,0.2434,0.2432,0.2267,0.2244,0.2433,0.242,0.2537,0.2536,0.2535,0.2534,0,0.1952,0.1959,0.1975,0.1988,0.2001,0.2026,0.2075,0.2102,0.2163,0.2237,0.2262,0.2358,0.2425,0.2472,0.256,0.2532,0.2571,0.2577,0.2382,0.2352,0.2431,0.2419,0.2511,0.2509,0.2507,0.2505,0.2504,0,0.1926,0.1953,0.1995,0.2005,0.2014,0.2048,0.2069,0.2121,0.2149,0.2283,0.2315,0.2417,0.2436,0.2529,0.2506,0.2508,0.2575,0.2359,0.2225,0.2441,0.2431,0.2422,0.2414,0.2066,0.2061,0.2058,0.2054,0,0.1864,0.1922,0.1932,0.1974,0.2,0.2033,0.2062,0.2089,0.2154,0.2203,0.2268,0.2294,0.2383,0.2281,0.2305,0.229,0.2319,0.2274,0.2588,0.208,0.2025,0.2013,0.2019,0.202,0.2023,0.2026,0.2028,0.2029,0.1787,0.1807,0.1836,0.1883,0.1925,0.194,0.192,0.195,0.1958,0.1969,0.2114,0.2084,0.2135,0.201,0.1986,0.1978,0.2108,0.2018,0.2029,0.2045,0.1951,0.1894,0.1848,0.1851,0.1853,0.1854,0.1856,0,0.1628,0.1681,0.1715,0.1742,0.1748,0.1823,0.1839,0.1784,0.1722,0.1808,0.18,0.1658,0.1602,0.1672,0.1593,0.1597,0.1579,0.1543,0.1505,0.1541,0.1573,0.1454,0.122,0.1218,0.1216,0.1214,0,0,0.154,0.1516,0.1564,0.1512,0.1557,0.1501,0.1482,0.1445,0.1463,0.1402,0.1389,0.1489,0.1599,0.1363,0.1356,0.1278,0.1396,0.1232,0.1746,0.1737,0.1766,0.1856,0.1714,0,0,0,0,0]},{"header":{"parameterUnit":"m.s-1","parameterCategory":2,"la1":30.2991,"la2":30.254,"lo1":-89.0895,"lo2":-89.0444,"dy":0.0017,"dx":0.0017,"nx":28,"ny":28,"refTime":"2023-09-15T21:00:00:Z","depth":"2","parameterNumber":3,"parameterNumberName":"V-component_of_CURRENTS"},"data":[0,0,0,0,0,0,0,0,0,0,0,0,0,0,0,0,0,0,0,0,0,0,0,0,0,0,0,0,0,0,0,0,0,0,0,0,0,0,0,0,0,0,0,0,0,0,0,0,0,0,0,0,0,0,0,0,0,0,0.0431,0.0431,0,0.0395,0.0394,0.0393,0.0337,0.0336,0.0336,0.0335,0.0242,0.0241,0.0239,0,0,0,0,0,0,0,0,0,0,0,0,0,0.0365,0.0367,0.0431,0.0431,0.0431,0.0395,0.0394,0.0393,0.0337,0.0336,0.0336,0.0335,0.0243,0.0241,0.0239,0,0,0,0,0,0,0,0,0,0,0,0,0,0.0365,0.0367,0.0431,0.0401,0.0398,0.0395,0.0394,0.0393,0.0338,0.0336,0.0335,0.0334,0.0244,0.0241,0.0238,0.0244,0,0,0.023,0.0229,0,0,0,0,0,0,0,0,0.0365,0.0367,0.0405,0.0403,0.0399,0.0372,0.0337,0.0342,0.0338,0.0357,0.0335,0.0334,0.0283,0.0277,0.0269,0.024,0.0236,0.023,0.0228,0.0227,0.0227,0,0,0,0,0,0,0,0.0365,0.0368,0.0414,0.0405,0.0402,0.0359,0.0358,0.0337,0.0324,0.0355,0.0352,0.0353,0.0281,0.0272,0.0267,0.0235,0.023,0.0228,0.0226,0.0225,0.0173,0.0173,0,0,0,0,0,0,0.0382,0.0369,0.0415,0.0413,0.0382,0.0362,0.0361,0.0379,0.0325,0.0317,0.0354,0.0351,0.0277,0.027,0.0263,0.0243,0.0227,0.0225,0.0223,0.0173,0.0173,0.0173,0,0,0,0,0,0,0.0381,0.0387,0.0416,0.0391,0.0392,0.0365,0.0386,0.0379,0.036,0.0325,0.0315,0.034,0.0276,0.0267,0.0242,0.024,0.0224,0.0221,0.0173,0.0173,0.0173,0.0219,0,0,0,0,0,0,0.038,0.0388,0.0394,0.0393,0.0394,0.0414,0.0387,0.038,0.0365,0.0359,0.031,0.0301,0.0275,0.0246,0.0239,0.0236,0.0219,0.0172,0.0173,0.0173,0.0217,0.022,0.0224,0,0,0,0,0,0.0378,0.0393,0.0395,0.04,0.0409,0.0415,0.0411,0.0385,0.0365,0.0361,0.0329,0.0302,0.0243,0.0244,0.0236,0.0232,0.0172,0.0173,0.0173,0.0215,0.022,0.0223,0,0,0,0,0,0,0.0351,0.0389,0.0391,0.0413,0.0415,0.0406,0.0398,0.0385,0.0357,0.0345,0.0307,0.0297,0.0275,0.025,0.0252,0.0219,0.0202,0.0201,0.0237,0.0241,0.0244,0.0249,0.0217,0,0,0,0,0,0.0357,0.0383,0.0403,0.0414,0.0422,0.041,0.0404,0.0392,0.0374,0.036,0.0327,0.0293,0.0274,0.0254,0.0232,0.0214,0.0183,0.0205,0.0208,0.0211,0.021,0.0179,0.0179,0.0175,0.0175,0.0175,0,0,0.0341,0.037,0.0378,0.0411,0.0408,0.0424,0.0402,0.0398,0.0399,0.0355,0.0332,0.0305,0.0274,0.0256,0.0243,0.023,0.0194,0.0212,0.0215,0.0211,0.0179,0.018,0.018,0.0175,0.0175,0.0175,0,0,0.0337,0.036,0.0385,0.0401,0.0417,0.0418,0.0421,0.0415,0.0399,0.0383,0.0355,0.0334,0.0289,0.0275,0.0262,0.0271,0.0219,0.0254,0.0266,0.0237,0.0237,0.0237,0.0189,0.0184,0.0249,0.0249,0.0249,0,0.0313,0.0364,0.0384,0.0416,0.0429,0.0422,0.0441,0.0433,0.0411,0.0404,0.0377,0.0329,0.0303,0.0293,0.0292,0.028,0.024,0.0255,0.0242,0.0241,0.024,0.019,0.0185,0.0251,0.0251,0.0251,0.0251,0,0.034,0.0374,0.0388,0.0438,0.0448,0.0464,0.0472,0.0464,0.0441,0.0431,0.0407,0.0371,0.0334,0.033,0.0309,0.0292,0.0259,0.0256,0.0233,0.0243,0.019,0.0183,0.0255,0.0254,0.0253,0.0252,0,0,0.0315,0.0392,0.0395,0.0423,0.0466,0.0474,0.0486,0.0498,0.0492,0.0462,0.0445,0.042,0.0383,0.0365,0.0336,0.0314,0.0273,0.0274,0.0271,0.0228,0.0181,0.0167,0.0158,0.0259,0.0258,0.0257,0.0144,0,0.033,0.0386,0.0425,0.0464,0.0498,0.0511,0.0519,0.0521,0.0507,0.0485,0.0456,0.0419,0.0401,0.0362,0.0344,0.0291,0.0257,0.0303,0.0176,0.0172,0.0161,0.0151,0.0168,0.007,0.0137,0.0136,0.0135,0,0.0354,0.0398,0.0432,0.0492,0.0504,0.0506,0.0518,0.0525,0.0512,0.0493,0.0463,0.0429,0.0387,0.0363,0.028,0.0301,0.0238,0.0203,0.0198,0.0164,0.0145,0.0072,0.0054,0.0122,0.0123,0.0124,0.0125,0,0.0331,0.0405,0.0427,0.0448,0.0504,0.0497,0.0504,0.0507,0.0513,0.047,0.0457,0.0412,0.0361,0.0299,0.0226,0.0232,0.0135,0.0133,0.0066,0.0063,0.0044,0.0041,0.007,0.007,0.0071,0.0071,0.0071,0,0.0349,0.0381,0.0404,0.0421,0.0437,0.0465,0.0462,0.0465,0.0461,0.0496,0.0432,0.0438,0.0339,0.0285,0.0218,0.0118,0.0119,0.006,0.0035,0.0059,0.0059,0.0083,0.0086,0.0067,0.0068,0.0068,0.0069,0,0.0348,0.0361,0.0398,0.0425,0.0426,0.0421,0.044,0.0464,0.0433,0.047,0.045,0.042,0.0358,0.0268,0.0164,0.0097,0.0012,-0.0024,0.0001,-0.0018,-0.0046,-0.0039,-0.0128,-0.0129,-0.0131,-0.0132,-0.0132,0,0.0373,0.0379,0.0382,0.0396,0.0405,0.0405,0.0434,0.0431,0.0481,0.0499,0.0539,0.046,0.0466,0.0273,0.0134,-0.0018,-0.0007,-0.0113,-0.0085,-0.005,-0.0066,-0.0057,-0.0049,-0.0106,-0.0106,-0.0107,-0.0107,0,0.0432,0.0394,0.0417,0.0427,0.0439,0.0482,0.0519,0.0546,0.0596,0.0618,0.068,0.0663,0.0487,0.0335,0.0092,0.0008,-0.0087,-0.0127,-0.0106,-0.0046,-0.0035,-0.0048,-0.004,-0.0111,-0.0111,-0.011,-0.011,-0.011,0.0471,0.0477,0.0473,0.0489,0.0521,0.0585,0.0613,0.0685,0.0748,0.0803,0.0804,0.077,0.0573,0.0265,0.0081,-0.0124,-0.0109,-0.0172,-0.0169,-0.0165,-0.0129,-0.012,-0.0207,-0.0207,-0.0208,-0.0208,-0.0208,0,0.0539,0.0534,0.0559,0.0576,0.063,0.0629,0.0718,0.0755,0.0843,0.0887,0.0903,0.0744,0.0535,0.0317,0.0001,-0.0187,-0.0185,-0.0228,-0.0186,-0.0181,-0.0177,-0.014,-0.0223,-0.0223,-0.0224,-0.0224,0,0,0.0569,0.0597,0.0595,0.0678,0.0704,0.0776,0.0822,0.0873,0.0911,0.0937,0.0912,0.0837,0.0591,0.0367,0.0115,-0.0058,-0.0072,-0.0084,-0.0054,0.003,0.0036,-0.0129,-0.0065,0,0,0,0,0]}],[{"header":{"parameterUnit":"m.s-1","parameterCategory":2,"la1":30.2991,"la2":30.254,"lo1":-89.0895,"lo2":-89.0444,"dy":0.0017,"dx":0.0017,"nx":28,"ny":28,"refTime":"2023-09-15T21:00:00:Z","depth":"4","parameterNumber":2,"parameterNumberName":"U-component_of_CURRENTS"},"data":[0,0,0,0,0,0,0,0,0,0,0,0,0,0,0,0,0,0,0,0,0,0,0,0,0,0,0,0,0,0,0,0,0,0,0,0,0,0,0,0,0,0,0,0,0,0,0,0,0,0,0,0,0,0,0,0,0,0,0.0565,0.0565,0,0.0582,0.0582,0.0583,0.0622,0.0622,0.0622,0.0623,0.0643,0.0643,0.0643,0,0,0,0,0,0,0,0,0,0,0,0,0,0.0552,0.0553,0.0565,0.0565,0.0564,0.0582,0.0582,0.0583,0.0622,0.0622,0.0623,0.0623,0.0643,0.0643,0.0643,0,0,0,0,0,0,0,0,0,0,0,0,0,0.0567,0.0553,0.0565,0.0582,0.0583,0.0581,0.0582,0.0583,0.0622,0.0622,0.0623,0.0623,0.0643,0.0643,0.0643,0.0635,0,0,0.0644,0.0645,0,0,0,0,0,0,0,0,0.0566,0.0568,0.058,0.0581,0.0582,0.0596,0.0585,0.0599,0.0621,0.0612,0.0623,0.0623,0.0624,0.0626,0.0635,0.0636,0.0637,0.0645,0.0645,0.0645,0.0645,0,0,0,0,0,0,0,0.0565,0.0567,0.0577,0.0579,0.0581,0.0584,0.0587,0.0588,0.0619,0.0613,0.0615,0.0609,0.0625,0.0635,0.0636,0.0637,0.0645,0.0645,0.0645,0.0645,0.0697,0.0698,0,0,0,0,0,0,0.0553,0.0567,0.0576,0.0577,0.057,0.0583,0.0587,0.0595,0.0619,0.0622,0.0608,0.061,0.0634,0.0635,0.0636,0.0682,0.0645,0.0645,0.0645,0.0696,0.0697,0.0699,0,0,0,0,0,0,0.0553,0.0555,0.0575,0.0567,0.0569,0.0582,0.0591,0.0595,0.0624,0.0614,0.0618,0.0634,0.0634,0.0636,0.067,0.0681,0.0645,0.0646,0.0694,0.0696,0.0698,0.0739,0,0,0,0,0,0,0.0553,0.0555,0.0564,0.0567,0.0569,0.0591,0.059,0.0595,0.0615,0.0619,0.0637,0.0639,0.0635,0.067,0.0671,0.0681,0.0646,0.0693,0.0695,0.0697,0.0736,0.0742,0.0747,0,0,0,0,0,0.0553,0.0552,0.0565,0.0566,0.058,0.0591,0.0594,0.0607,0.0616,0.0635,0.0657,0.0639,0.0684,0.0672,0.0672,0.0683,0.0692,0.0695,0.0697,0.0734,0.0741,0.0747,0,0,0,0,0,0,0.0547,0.0556,0.057,0.0573,0.0591,0.0596,0.061,0.0618,0.065,0.0664,0.0659,0.0663,0.069,0.0687,0.0674,0.0705,0.0682,0.0685,0.071,0.0716,0.0722,0.0736,0.0646,0,0,0,0,0,0.055,0.0562,0.0572,0.058,0.0592,0.0609,0.0617,0.0632,0.0651,0.0667,0.0673,0.0687,0.0697,0.071,0.0715,0.0739,0.0743,0.0745,0.075,0.0755,0.0769,0.0773,0.078,0.0707,0.0707,0.0707,0,0,0.0549,0.0556,0.0562,0.0581,0.06,0.0617,0.0618,0.0644,0.066,0.0662,0.0694,0.0703,0.0707,0.0733,0.0744,0.0737,0.0784,0.0758,0.0762,0.0773,0.0776,0.0783,0.0789,0.0709,0.0709,0.0708,0,0,0.055,0.0567,0.0582,0.0599,0.0628,0.0637,0.0648,0.0671,0.069,0.0726,0.0724,0.0749,0.0769,0.0771,0.0775,0.0814,0.0806,0.0815,0.086,0.0864,0.087,0.0875,0.0914,0.0922,0.0824,0.0824,0.0824,0,0.055,0.057,0.0588,0.0608,0.0621,0.0647,0.067,0.0688,0.0717,0.0738,0.0746,0.0788,0.0785,0.0812,0.0832,0.0824,0.0843,0.0833,0.0871,0.0876,0.088,0.0918,0.0927,0.0826,0.0826,0.0826,0.0825,0,0.0565,0.0586,0.0598,0.0634,0.0653,0.0677,0.0702,0.0734,0.0762,0.0776,0.0823,0.0836,0.0864,0.0861,0.0865,0.0895,0.0905,0.0869,0.0852,0.089,0.0928,0.0936,0.0829,0.0829,0.0828,0.0827,0,0,0.0546,0.0598,0.0604,0.0631,0.0671,0.0689,0.0729,0.0767,0.0804,0.0837,0.0872,0.0905,0.0923,0.093,0.093,0.0945,0.0995,0.0936,0.0935,0.0973,0.1043,0.0982,0.0985,0.0968,0.0969,0.097,0.1066,0,0.0556,0.0596,0.0619,0.0661,0.0685,0.0726,0.0757,0.0799,0.0843,0.0878,0.0902,0.0936,0.0942,0.0971,0.0986,0.0986,0.1016,0.0975,0.1004,0.1006,0.0943,0.0991,0.0973,0.1072,0.1074,0.1075,0.1076,0,0.0558,0.0586,0.0632,0.0686,0.0704,0.0734,0.0808,0.0843,0.0897,0.0934,0.0983,0.0997,0.1039,0.1021,0.1078,0.1058,0.1067,0.1067,0.1069,0.1002,0.0958,0.1021,0.1091,0.109,0.1089,0.1088,0.1087,0,0.0534,0.0589,0.0629,0.0647,0.0713,0.0753,0.0796,0.0866,0.0906,0.0974,0.1017,0.1059,0.1101,0.1109,0.1129,0.1114,0.1173,0.1138,0.1099,0.1096,0.1103,0.1097,0.1171,0.1171,0.117,0.117,0.117,0,0.0519,0.0547,0.0627,0.0649,0.0702,0.0756,0.0824,0.088,0.0948,0.099,0.1049,0.1089,0.1128,0.116,0.1152,0.1163,0.1197,0.1127,0.1113,0.1123,0.1117,0.1111,0.1103,0.1174,0.1173,0.1172,0.1172,0,0.0479,0.0529,0.0579,0.0665,0.0694,0.0738,0.0829,0.0873,0.0963,0.1021,0.1045,0.1135,0.1198,0.1222,0.1247,0.1209,0.1199,0.1187,0.1235,0.1219,0.1125,0.1118,0.1173,0.1172,0.1171,0.117,0.1169,0,0.0475,0.0494,0.0586,0.0619,0.0662,0.0731,0.0774,0.0865,0.0909,0.1036,0.1049,0.1152,0.1197,0.1219,0.1229,0.1233,0.1204,0.1208,0.114,0.1143,0.1124,0.1119,0.1114,0.1167,0.1166,0.1166,0.1166,0,0.0462,0.0492,0.0526,0.0597,0.0651,0.0699,0.077,0.0793,0.0897,0.0974,0.1055,0.1094,0.1167,0.1194,0.1215,0.1194,0.1204,0.1195,0.1197,0.1134,0.1135,0.1117,0.1113,0.1162,0.1162,0.1163,0.1163,0,0.0465,0.0466,0.0521,0.0571,0.0628,0.0668,0.0704,0.0769,0.0827,0.0961,0.0975,0.1079,0.1161,0.1174,0.1168,0.1171,0.1153,0.1107,0.1114,0.1119,0.1047,0.1038,0.104,0,0,0,0,0,0.0478,0.046,0.0499,0.0549,0.0594,0.0644,0.0704,0.0739,0.0823,0.0866,0.0928,0.0985,0.1039,0.1082,0.1075,0.1119,0.1135,0.1101,0.108,0.1138,0.1143,0.1059,0,0,0,0,0,0,0.0489,0.0498,0.0486,0.0523,0.0554,0.061,0.0654,0.0706,0.0739,0.0827,0.0868,0.0937,0.1001,0.105,0.1065,0.1073,0.1041,0.1156,0.1153,0.1135,0.114,0.1144,0.1059,0,0,0,0,0]},{"header":{"parameterUnit":"m.s-1","parameterCategory":2,"la1":30.2991,"la2":30.254,"lo1":-89.0895,"lo2":-89.0444,"dy":0.0017,"dx":0.0017,"nx":28,"ny":28,"refTime":"2023-09-15T21:00:00:Z","depth":"4","parameterNumber":3,"parameterNumberName":"V-component_of_CURRENTS"},"data":[0,0,0,0,0,0,0,0,0,0,0,0,0,0,0,0,0,0,0,0,0,0,0,0,0,0,0,0,0,0,0,0,0,0,0,0,0,0,0,0,0,0,0,0,0,0,0,0,0,0,0,0,0,0,0,0,0,0,0.0315,0.0315,0,0.0266,0.0266,0.0265,0.0257,0.0258,0.0258,0.0259,0.0209,0.0207,0.0205,0,0,0,0,0,0,0,0,0,0,0,0,0,0.0348,0.0348,0.0315,0.0315,0.0314,0.0266,0.0266,0.0265,0.0257,0.0258,0.0258,0.0259,0.0209,0.0207,0.0205,0,0,0,0,0,0,0,0,0,0,0,0,0,0.0319,0.0347,0.0316,0.0306,0.0304,0.0267,0.0266,0.0265,0.0257,0.0258,0.0259,0.0259,0.021,0.0207,0.0205,0.0171,0,0,0.0196,0.0195,0,0,0,0,0,0,0,0,0.032,0.0317,0.0308,0.0306,0.0305,0.027,0.0259,0.0234,0.0257,0.0274,0.0259,0.026,0.0229,0.0225,0.0212,0.0169,0.0167,0.0196,0.0194,0.0193,0.0192,0,0,0,0,0,0,0,0.0323,0.0319,0.0295,0.0307,0.0305,0.0285,0.0282,0.0254,0.0246,0.0272,0.0272,0.0268,0.0228,0.0215,0.0211,0.0166,0.0196,0.0194,0.0192,0.0191,0.0108,0.0107,0,0,0,0,0,0,0.0333,0.0321,0.0296,0.0293,0.0316,0.0284,0.0281,0.0279,0.0247,0.0243,0.0267,0.0268,0.0219,0.0214,0.0209,0.019,0.0193,0.0191,0.0189,0.0108,0.0108,0.0107,0,0,0,0,0,0,0.0334,0.0331,0.0298,0.0307,0.0302,0.0283,0.0281,0.0278,0.0272,0.0243,0.024,0.0267,0.022,0.0213,0.0193,0.0188,0.0189,0.0187,0.0109,0.0108,0.0107,0.0138,0,0,0,0,0,0,0.0335,0.0332,0.0334,0.0308,0.0302,0.0284,0.028,0.0276,0.0269,0.0269,0.0241,0.0237,0.022,0.0197,0.019,0.0184,0.0185,0.011,0.0109,0.0108,0.0137,0.0138,0.0139,0,0,0,0,0,0.0336,0.0335,0.0335,0.0332,0.0306,0.0285,0.0279,0.0268,0.0268,0.0266,0.0248,0.0238,0.0185,0.0194,0.0186,0.0179,0.011,0.0109,0.0108,0.0137,0.0138,0.0139,0,0,0,0,0,0,0.0343,0.0333,0.0333,0.0327,0.0313,0.0284,0.0279,0.0271,0.0253,0.0257,0.0231,0.0225,0.0204,0.0185,0.0195,0.0151,0.0145,0.0142,0.017,0.0171,0.0171,0.0182,0.0182,0,0,0,0,0,0.0348,0.0352,0.0332,0.0329,0.0323,0.0303,0.0293,0.0286,0.0267,0.0261,0.024,0.0215,0.0189,0.0177,0.0151,0.0127,0.0108,0.0116,0.0116,0.0117,0.0119,0.0075,0.0072,0.0103,0.0103,0.0103,0,0,0.0351,0.0346,0.0347,0.0333,0.032,0.031,0.0299,0.0289,0.0283,0.0257,0.0242,0.0216,0.0182,0.0158,0.0146,0.0144,0.0101,0.0115,0.0116,0.0118,0.0074,0.0071,0.0068,0.0102,0.0102,0.0103,0,0,0.0355,0.0353,0.0356,0.0346,0.0334,0.032,0.0321,0.0296,0.029,0.0272,0.0249,0.0222,0.0186,0.0158,0.014,0.0124,0.0105,0.0116,0.0128,0.0086,0.0083,0.0081,0.0071,0.0067,0.0117,0.0117,0.0117,0,0.0358,0.0359,0.0352,0.0348,0.0343,0.0328,0.0324,0.031,0.0283,0.0276,0.0275,0.0212,0.0184,0.0146,0.0143,0.0126,0.0111,0.0132,0.0088,0.0085,0.0082,0.0072,0.0067,0.0119,0.0119,0.0118,0.0118,0,0.0359,0.0362,0.0361,0.0358,0.0349,0.0345,0.0328,0.0321,0.0314,0.0297,0.0266,0.0225,0.019,0.0172,0.0155,0.0115,0.0116,0.0095,0.0091,0.0081,0.0071,0.0066,0.0121,0.012,0.012,0.0119,0,0,0.0362,0.0364,0.0365,0.037,0.0357,0.0351,0.0345,0.0331,0.0333,0.03,0.0284,0.0234,0.0216,0.0193,0.016,0.0121,0.009,0.0104,0.0101,0.0103,0.0021,0.0006,-0.0001,0.0061,0.006,0.0059,0.003,0,0.0366,0.0372,0.0369,0.0374,0.0374,0.0365,0.0365,0.0352,0.0341,0.032,0.0271,0.0247,0.0223,0.021,0.0164,0.0105,0.0074,0.0101,0.0022,0.0021,0.0015,-0.0009,0.0055,0.0026,0.0025,0.0024,0.0023,0,0.0364,0.0373,0.0384,0.0395,0.0395,0.04,0.0404,0.0402,0.0373,0.0362,0.0325,0.0287,0.0229,0.0206,0.0112,0.0132,0.0083,0.0037,0.0035,0.0005,-0.0005,0.0031,0.0014,0.0014,0.0015,0.0016,0.0016,0,0.0371,0.0381,0.0397,0.0398,0.0407,0.042,0.0428,0.042,0.0426,0.0392,0.0388,0.0312,0.0285,0.0198,0.011,0.0112,0.0002,-0.0009,-0.0065,-0.0065,-0.0053,-0.0051,-0.0079,-0.0079,-0.0079,-0.0079,-0.0079,0,0.0372,0.0383,0.041,0.0419,0.0449,0.0448,0.0479,0.0476,0.0469,0.0465,0.0419,0.0389,0.028,0.0202,0.0115,0.0011,0.0008,-0.0066,-0.0083,-0.0037,-0.0033,-0.0056,-0.0053,-0.008,-0.008,-0.008,-0.0079,0,0.0369,0.0385,0.0408,0.0438,0.0455,0.048,0.0521,0.0537,0.054,0.0529,0.0519,0.045,0.035,0.0239,0.0099,0.0035,-0.0077,-0.0113,-0.0035,-0.0048,-0.0109,-0.0104,-0.0169,-0.017,-0.0171,-0.0171,-0.0172,0,0.0366,0.0381,0.0428,0.0456,0.0476,0.052,0.055,0.0569,0.0578,0.0555,0.0536,0.0458,0.0391,0.0203,0.008,-0.0079,-0.0106,-0.0138,-0.0144,-0.0112,-0.0123,-0.0117,-0.0111,-0.0173,-0.0173,-0.0174,-0.0174,0,0.0364,0.0386,0.0407,0.0468,0.0512,0.0553,0.0592,0.0598,0.0603,0.061,0.0544,0.0446,0.0334,0.0188,0.0071,-0.0052,-0.0109,-0.0148,-0.0146,-0.0152,-0.0118,-0.0127,-0.012,-0.0177,-0.0176,-0.0176,-0.0176,0,0.0367,0.0381,0.0421,0.0466,0.0522,0.0555,0.0583,0.0587,0.0598,0.0569,0.0539,0.0425,0.0366,0.0201,0.0077,-0.0032,-0.0059,-0.0081,-0.0084,-0.0082,-0.0058,-0.0002,-0.0045,0,0,0,0,0,0.0364,0.0375,0.0417,0.0461,0.0514,0.0548,0.059,0.0608,0.0611,0.0567,0.0556,0.0441,0.0269,0.0198,0.0084,0.0052,-0.0083,-0.0084,-0.0111,-0.0193,-0.019,-0.018,0,0,0,0,0,0,0.0363,0.0395,0.0405,0.0446,0.0475,0.0531,0.0558,0.0565,0.0542,0.0533,0.0442,0.0417,0.0248,0.0327,0.008,0.0048,0.0017,-0.0157,-0.016,-0.0195,-0.0192,-0.0189,-0.0178,0,0,0,0,0]}]]